Temp
54 54 54 54 53 54 53 52 51 53 52 51 53 52 53 53 52 52 51 51 52 51 51 51 51 52 52 51 51 52 52 51 51 50 50 51 50 51 51 51 51 51
54 54 56 55 54 54 53 53 53 53 53 52 53 52 51 52 51 52 51 51 52 50 50 50 51 51 50 51 51 51 50 50 50 52 50 50 50 50 50 50 50 50
54 53 54 54 54 53 53 52 53 53 53 53 51 51 52 52 52 50 51 51 51 50 50 50 50 50 50 50 50 50 50 49 49 49 51 50 49 50 50 50 50 50
54 55 55 55 54 53 52 52 51 52 51 51 51 52 53 53 52 51 51 53 50 50 49 50 50 50 50 49 49 49 49 49 48 49 49 49 50 50 50 51 51 50
54 54 54 55 54 54 52 52 52 52 52 52 51 50 52 52 50 51 51 49 50 49 49 49 49 49 49 48 48 48 49 48 48 48 48 49 49 50 50 50 49 49
53 54 54 54 54 53 52 53 53 52 52 50 51 52 51 52 51 51 51 50 49 50 49 49 48 47 47 47 47 47 48 48 47 47 48 48 48 48 49 49 48 48
55 54 53 53 53 53 54 53 53 53 52 53 51 51 51 51 51 51 50 50 49 50 50 49 47 46 47 48 48 47 47 47 47 47 48 47 48 47 48 48 48 48
55 54 54 53 53 52 53 53 52 52 52 51 52 51 51 51 51 50 50 49 49 48 47 47 47 47 47 48 48 47 47 48 47 47 47 47 46 47 47 48 47 47
54 54 53 53 53 52 52 52 52 51 52 52 52 50 50 51 50 50 49 49 48 46 46 47 47 47 47 48 46 46 47 46 46 46 46 46 46 46 46 47 46 47
55 54 53 53 53 53 53 52 52 51 52 52 52 50 51 50 50 49 49 48 48 46 46 46 46 47 46 46 47 47 47 46 46 46 45 46 45 46 46 46 46 46
55 53 53 53 53 53 53 52 51 51 52 52 50 50 50 49 49 49 48 48 48 47 46 46 47 47 47 46 45 45 46 46 45 45 45 45 45 45 47 47 46 46
54 53 53 53 53 52 52 52 52 51 51 51 52 51 49 50 49 48 50 48 47 47 47 47 46 46 46 46 45 45 45 44 44 45 45 45 46 46 46 46 46 47
54 53 53 52 52 52 52 52 52 51 51 51 51 51 50 49 48 48 48 48 47 47 47 47 46 45 45 44 44 43 44 44 44 44 45 45 45 46 46 46 46 47
53 53 53 53 53 53 52 51 51 51 52 51 51 50 50 49 48 48 47 48 47 48 47 47 45 44 42 42 43 43 45 44 44 45 45 44 45 45 45 46 46 46
53 52 52 52 52 52 51 52 51 52 52 51 51 50 50 49 49 48 46 46 46 46 45 45 44 44 44 43 43 44 43 44 44 44 43 43 44 44 44 45 45 45
53 52 52 52 52 52 52 53 52 51 51 51 50 50 49 48 48 48 48 47 45 44 44 45 44 44 47 45 45 46 44 43 43 43 43 43 43 43 43 44 44 44
51 51 51 51 52 52 52 51 50 50 51 50 49 49 48 48 48 47 46 46 45 45 44 44 44 45 44 41 42 42 43 42 42 42 42 42 42 42 42 43 44 44
51 51 50 51 51 51 50 50 49 49 48 48 47 47 47 47 47 46 45 44 44 44 44 44 44 45 41 41 41 41 42 44 42 41 42 41 41 41 42 42 42 42
50 50 50 49 49 50 50 50 49 49 49 48 47 47 46 46 46 45 44 44 44 44 43 44 44 43 41 41 40 40 40 41 41 41 41 41 41 41 41 41 41 42
50 50 49 49 49 49 49 49 49 48 46 46 46 45 45 44 44 44 44 43 44 44 44 43 43 42 40 40 40 40 39 40 41 40 40 40 40 40 41 41 41 41
49 49 48 48 49 49 49 49 49 47 47 46 45 45 44 43 43 44 44 44 44 43 42 42 42 42 40 40 39 40 39 40 40 39 39 39 40 40 40 41 41 41
48 48 48 48 48 49 48 48 47 48 46 45 45 44 44 44 44 44 44 43 42 41 42 41 40 39 38 39 39 39 39 41 39 38 38 39 39 40 40 41 41 41
48 48 48 48 49 48 48 48 47 46 44 44 43 43 42 43 43 43 44 42 40 40 41 40 39 39 38 39 39 39 39 39 38 38 38 37 38 39 40 40 40 41
47 48 48 49 48 48 48 46 45 45 43 44 43 42 43 44 43 41 40 41 41 39 40 40 39 38 39 39 39 39 40 39 38 37 37 37 37 38 39 39 40 41
47 48 49 49 48 48 46 44 43 43 42 43 42 43 43 41 41 39 37 38 40 40 42 40 37 39 40 38 38 38 40 39 38 37 36 36 37 38 38 38 39 40
47 48 49 49 48 46 45 43 43 42 42 43 42 42 41 39 39 39 39 38 38 39 40 40 38 37 39 38 39 39 39 40 39 37 36 37 38 38 38 39 39 40
MSLP
1017.02 1017.26 1017.34 1017.50 1017.58 1017.62 1017.74 1017.86 1018.14 1018.14 1018.34 1018.62 1018.70 1018.82 1018.98 1019.22 1019.54 1019.62 1019.74 1019.94 1020.10 1020.22 1020.46 1020.62 1020.74 1020.86 1021.06 1021.18 1021.26 1021.38 1021.54 1021.70 1021.82 1021.94 1021.98 1022.02 1022.10 1022.06 1022.10 1022.06 1022.06 1022.02
1016.66 1016.90 1017.10 1017.30 1017.46 1017.66 1017.74 1017.70 1017.82 1017.90 1018.06 1018.30 1018.42 1018.62 1018.98 1019.10 1019.34 1019.42 1019.62 1019.86 1020.06 1020.26 1020.50 1020.62 1020.70 1020.86 1021.02 1021.14 1021.26 1021.42 1021.66 1021.74 1021.82 1021.94 1021.94 1022.02 1022.14 1022.14 1022.22 1022.26 1022.22 1022.22
1016.46 1016.66 1016.82 1016.94 1017.06 1017.26 1017.46 1017.74 1017.82 1017.86 1017.90 1018.06 1018.34 1018.46 1018.66 1018.94 1019.10 1019.38 1019.54 1019.70 1019.94 1020.14 1020.30 1020.46 1020.58 1020.74 1020.94 1021.10 1021.26 1021.46 1021.66 1021.86 1022.02 1022.10 1022.06 1022.18 1022.26 1022.26 1022.30 1022.34 1022.34 1022.34
1016.30 1016.30 1016.42 1016.54 1016.70 1016.98 1017.42 1017.62 1017.82 1017.94 1018.10 1018.30 1018.26 1018.22 1018.30 1018.62 1018.82 1019.14 1019.38 1019.50 1019.74 1019.98 1020.22 1020.38 1020.54 1020.74 1020.86 1021.06 1021.18 1021.46 1021.62 1021.86 1022.10 1022.10 1022.10 1022.18 1022.26 1022.34 1022.34 1022.38 1022.38 1022.38
1016.38 1016.46 1016.50 1016.46 1016.62 1016.90 1017.26 1017.38 1017.50 1017.74 1017.86 1017.94 1018.30 1018.50 1018.50 1018.62 1018.78 1018.94 1019.10 1019.30 1019.46 1019.82 1020.10 1020.30 1020.50 1020.70 1020.94 1021.10 1021.26 1021.46 1021.66 1021.82 1022.02 1022.02 1022.06 1022.14 1022.26 1022.30 1022.30 1022.34 1022.42 1022.46
1016.78 1016.74 1016.62 1016.54 1016.62 1016.78 1017.02 1017.14 1017.26 1017.50 1017.78 1018.02 1018.10 1018.42 1018.46 1018.66 1018.82 1018.94 1019.10 1019.26 1019.42 1019.66 1019.94 1020.14 1020.38 1020.70 1020.82 1020.98 1021.14 1021.38 1021.58 1021.74 1022.02 1022.06 1022.10 1022.22 1022.30 1022.30 1022.30 1022.34 1022.38 1022.42
1015.90 1016.30 1016.42 1016.58 1016.66 1016.70 1016.70 1016.82 1017.10 1017.30 1017.46 1017.54 1018.02 1018.14 1018.38 1018.62 1018.78 1018.94 1019.10 1019.26 1019.50 1019.62 1019.74 1019.94 1020.22 1020.54 1020.70 1020.70 1020.90 1021.18 1021.46 1021.62 1021.78 1021.90 1021.98 1022.18 1022.30 1022.30 1022.34 1022.38 1022.42 1022.46
1015.66 1015.94 1016.18 1016.42 1016.54 1016.66 1016.66 1016.74 1016.90 1017.02 1017.26 1017.54 1017.54 1017.86 1018.10 1018.30 1018.62 1018.90 1019.06 1019.18 1019.34 1019.50 1019.70 1019.90 1020.06 1020.22 1020.34 1020.38 1020.70 1021.02 1021.22 1021.42 1021.50 1021.66 1021.82 1021.98 1022.14 1022.18 1022.26 1022.30 1022.42 1022.46
1015.66 1016.06 1016.30 1016.30 1016.30 1016.42 1016.50 1016.54 1016.70 1016.90 1017.10 1017.14 1017.38 1017.66 1017.98 1018.06 1018.30 1018.58 1018.82 1019.06 1019.26 1019.46 1019.62 1019.82 1019.94 1020.06 1020.14 1020.26 1020.58 1020.78 1020.98 1021.18 1021.38 1021.50 1021.62 1021.74 1021.86 1021.98 1022.02 1022.14 1022.14 1022.22
1015.66 1015.50 1015.78 1016.18 1016.18 1016.02 1016.06 1016.18 1016.42 1016.62 1016.86 1016.98 1017.18 1017.46 1017.62 1017.98 1018.10 1018.30 1018.62 1018.82 1019.02 1019.30 1019.46 1019.66 1019.86 1019.94 1020.06 1020.26 1020.46 1020.66 1020.82 1020.98 1021.22 1021.38 1021.50 1021.62 1021.70 1021.74 1021.78 1021.86 1021.86 1021.94
1014.62 1015.10 1015.30 1015.50 1015.70 1015.86 1015.74 1015.86 1016.06 1016.34 1016.66 1016.82 1017.18 1017.38 1017.54 1017.78 1018.10 1018.18 1018.30 1018.50 1018.70 1018.98 1019.34 1019.54 1019.70 1019.82 1019.98 1020.26 1020.46 1020.62 1020.74 1020.90 1021.10 1021.26 1021.38 1021.50 1021.58 1021.62 1021.62 1021.62 1021.66 1021.62
1014.62 1014.82 1014.86 1014.86 1015.06 1015.42 1015.62 1015.78 1015.90 1016.18 1016.50 1016.78 1016.94 1017.18 1017.58 1017.66 1017.78 1018.10 1018.10 1018.30 1018.58 1018.90 1019.14 1019.42 1019.62 1019.78 1019.94 1020.14 1020.34 1020.58 1020.74 1020.94 1021.10 1021.26 1021.34 1021.42 1021.46 1021.50 1021.50 1021.50 1021.46 1021.42
1014.42 1014.50 1014.58 1014.70 1014.78 1014.90 1015.02 1015.30 1015.54 1015.82 1016.10 1016.42 1016.70 1016.90 1017.26 1017.62 1017.90 1018.06 1018.38 1018.42 1018.78 1019.02 1019.18 1019.34 1019.54 1019.78 1020.02 1020.26 1020.42 1020.62 1020.78 1020.90 1020.98 1021.10 1021.26 1021.38 1021.46 1021.50 1021.46 1021.42 1021.38 1021.26
1014.14 1014.18 1014.42 1014.58 1014.78 1015.02 1015.34 1015.46 1015.50 1015.50 1015.66 1015.98 1016.38 1016.66 1016.94 1017.26 1017.62 1017.94 1018.42 1018.62 1018.78 1018.94 1019.22 1019.42 1019.62 1019.94 1020.22 1020.42 1020.62 1020.78 1020.82 1020.82 1020.94 1021.06 1021.22 1021.38 1021.42 1021.46 1021.42 1021.34 1021.22 1021.10
1013.70 1013.98 1014.22 1014.42 1014.58 1014.74 1014.94 1014.94 1014.86 1014.86 1015.10 1015.62 1016.06 1016.34 1016.66 1016.94 1017.34 1017.82 1018.34 1018.70 1018.94 1019.02 1019.34 1019.66 1019.82 1020.02 1020.30 1020.58 1020.74 1020.78 1020.86 1020.86 1020.98 1021.06 1021.18 1021.26 1021.34 1021.30 1021.26 1021.22 1021.10 1020.98
1013.50 1013.66 1013.82 1014.02 1014.22 1014.34 1014.42 1014.50 1014.74 1014.82 1014.94 1015.18 1015.62 1016.10 1016.50 1016.94 1017.38 1017.82 1018.10 1018.50 1018.90 1019.22 1019.38 1019.58 1019.82 1020.10 1020.34 1020.54 1020.66 1020.70 1020.78 1020.86 1020.94 1021.02 1021.06 1021.10 1021.14 1021.14 1021.10 1021.02 1020.94 1020.82
1013.54 1013.58 1013.66 1013.74 1013.74 1013.90 1014.06 1014.58 1014.98 1015.18 1015.30 1015.46 1015.74 1016.18 1016.58 1016.90 1017.30 1017.74 1018.22 1018.62 1018.82 1019.06 1019.30 1019.54 1019.82 1019.98 1020.10 1020.30 1020.46 1020.62 1020.74 1020.78 1020.82 1020.86 1020.94 1021.02 1021.02 1021.02 1020.94 1020.82 1020.66 1020.54
1013.34 1013.42 1013.58 1013.54 1013.74 1014.02 1014.38 1014.70 1015.22 1015.70 1015.90 1016.22 1016.38 1016.50 1016.62 1016.78 1017.06 1017.50 1018.06 1018.50 1018.86 1019.06 1019.18 1019.42 1019.62 1019.82 1019.94 1020.06 1020.30 1020.50 1020.66 1020.74 1020.78 1020.78 1020.82 1020.82 1020.86 1020.82 1020.78 1020.66 1020.46 1020.34
1013.30 1013.38 1013.42 1013.62 1013.82 1014.06 1014.26 1014.62 1015.02 1015.26 1015.42 1015.74 1016.22 1016.38 1016.54 1016.66 1017.02 1017.42 1017.86 1018.30 1018.58 1018.86 1019.02 1019.18 1019.30 1019.50 1019.70 1019.98 1020.22 1020.42 1020.54 1020.66 1020.70 1020.70 1020.66 1020.62 1020.62 1020.58 1020.54 1020.42 1020.30 1020.18
1013.22 1013.30 1013.42 1013.62 1013.90 1014.10 1014.30 1014.62 1014.86 1015.10 1015.78 1016.06 1016.42 1016.86 1016.90 1017.10 1017.30 1017.46 1017.90 1018.22 1018.54 1018.70 1018.82 1018.94 1019.02 1019.26 1019.58 1019.86 1020.06 1020.22 1020.34 1020.50 1020.54 1020.54 1020.50 1020.46 1020.42 1020.34 1020.30 1020.22 1020.10 1019.98
1013.18 1013.26 1013.38 1013.58 1013.74 1013.86 1014.06 1014.22 1014.38 1014.82 1014.90 1015.34 1015.90 1016.34 1016.70 1017.10 1017.46 1017.70 1017.98 1018.14 1018.42 1018.58 1018.62 1018.66 1018.82 1019.10 1019.46 1019.66 1019.86 1019.98 1020.10 1020.30 1020.34 1020.38 1020.34 1020.26 1020.22 1020.14 1020.10 1020.02 1019.90 1019.74
1012.94 1013.06 1013.18 1013.38 1013.62 1013.82 1014.02 1014.14 1014.34 1014.22 1014.50 1015.26 1015.86 1016.26 1016.62 1017.02 1017.42 1017.50 1017.78 1018.06 1018.38 1018.46 1018.38 1018.50 1018.74 1019.02 1019.30 1019.46 1019.62 1019.74 1019.94 1020.10 1020.18 1020.18 1020.14 1020.06 1019.98 1019.86 1019.78 1019.70 1019.62 1019.50
1012.74 1012.82 1012.98 1013.14 1013.34 1013.62 1013.78 1013.94 1014.10 1014.46 1014.78 1014.98 1015.66 1016.30 1016.74 1017.06 1017.26 1017.38 1017.62 1017.98 1018.30 1018.30 1018.18 1018.34 1018.62 1018.86 1019.10 1019.26 1019.38 1019.54 1019.78 1019.94 1020.02 1020.02 1019.94 1019.82 1019.66 1019.58 1019.50 1019.42 1019.34 1019.14
1012.62 1012.70 1012.82 1013.02 1013.26 1013.38 1013.46 1013.82 1014.22 1014.58 1014.82 1014.98 1015.38 1016.22 1016.62 1016.82 1017.14 1017.46 1017.90 1018.06 1018.14 1018.34 1018.18 1018.18 1018.50 1018.74 1018.94 1019.06 1019.22 1019.42 1019.62 1019.78 1019.74 1019.74 1019.66 1019.58 1019.34 1019.30 1019.22 1019.10 1018.98 1018.74
1012.46 1012.50 1012.58 1012.78 1012.94 1013.14 1013.46 1013.94 1014.62 1015.06 1015.30 1015.50 1015.82 1016.18 1016.46 1016.90 1017.10 1017.14 1017.70 1018.10 1018.18 1018.10 1018.18 1018.14 1018.34 1018.54 1018.78 1018.90 1019.10 1019.26 1019.42 1019.54 1019.54 1019.50 1019.42 1019.26 1019.10 1018.90 1018.86 1018.74 1018.50 1018.30
1012.26 1012.30 1012.30 1012.50 1012.74 1013.22 1013.66 1013.90 1014.34 1014.78 1015.02 1015.30 1015.62 1015.98 1016.62 1017.02 1017.14 1017.46 1017.70 1017.90 1018.22 1018.02 1018.10 1018.26 1018.34 1018.50 1018.66 1018.86 1019.06 1019.18 1019.26 1019.30 1019.34 1019.34 1019.14 1018.86 1018.78 1018.62 1018.34 1018.18 1018.02 1017.74
Wind_Speed
7 7 8 7 7 6 7 7 5 6 6 5 7 6 7 5 5 5 5 5 5 6 5 5 5 6 6 6 6 6 5 5 4 4 5 5 4 5 4 5 5 4
9 8 7 6 5 4 5 6 7 7 7 7 7 6 5 5 4 6 6 5 5 6 5 5 6 6 6 6 6 6 5 5 5 3 5 6 4 4 4 4 4 3
8 8 8 9 9 8 8 6 6 6 7 7 5 6 7 5 6 5 6 6 6 5 5 5 6 6 6 6 6 5 5 5 5 4 4 5 4 5 4 3 3 4
8 9 10 9 8 8 7 7 5 5 3 5 6 6 7 6 7 7 6 6 7 6 5 5 6 5 6 6 6 6 5 6 4 4 4 4 4 4 4 3 3 4
7 7 7 7 6 6 6 7 8 7 7 6 4 3 5 5 6 6 7 6 7 6 5 6 5 6 5 6 6 6 5 5 4 5 5 5 4 4 4 4 4 5
4 5 6 6 6 7 8 8 8 8 7 5 7 5 5 5 6 6 6 7 6 7 6 6 7 5 6 6 6 6 5 5 4 5 5 4 3 4 3 4 4 5
9 8 8 6 5 7 8 8 7 7 8 7 6 6 6 6 6 7 6 7 7 6 7 6 7 6 5 6 6 6 5 5 4 4 3 2 1 3 3 4 4 4
5 6 7 6 7 7 8 7 7 8 7 7 8 7 8 8 7 6 6 6 6 6 6 6 6 6 5 6 6 5 4 3 3 3 2 2 1 2 3 2 3 4
7 7 6 7 9 8 8 8 8 7 7 9 8 8 7 8 8 8 7 6 6 6 6 5 6 6 5 6 5 4 2 2 2 2 1 1 2 3 3 2 3 3
9 9 9 9 10 9 10 9 8 8 8 8 8 8 9 7 8 9 8 7 6 5 5 5 5 5 6 5 4 3 1 1 1 1 1 2 2 3 3 3 4 4
13 10 10 11 11 9 11 10 9 9 8 9 8 8 7 8 6 7 8 7 7 7 6 6 6 6 5 4 4 4 2 1 1 2 2 3 3 4 3 4 4 4
11 9 11 13 12 10 10 9 9 9 9 7 9 9 8 7 9 6 7 7 7 6 6 6 6 5 5 3 3 3 2 1 1 2 3 4 4 5 5 5 5 6
10 11 11 11 11 12 11 10 9 9 10 10 9 10 10 8 7 7 4 7 6 7 7 6 6 5 4 3 3 1 1 1 2 3 4 4 4 5 6 6 6 6
10 10 9 9 8 6 5 8 9 10 11 10 10 10 10 10 9 8 6 6 7 7 6 5 5 4 3 3 2 1 1 2 2 3 4 4 5 6 6 6 7 7
9 8 8 8 8 9 10 11 12 12 11 11 10 10 9 10 9 9 8 7 6 6 6 4 5 4 3 3 2 1 1 1 3 3 4 5 5 6 6 6 7 7
8 8 9 10 11 12 12 12 11 10 11 12 11 10 9 9 9 8 9 9 7 6 6 5 4 4 4 5 3 1 1 1 2 3 4 4 5 6 6 7 7 7
6 8 8 11 11 11 11 7 5 6 7 8 9 9 9 9 9 9 8 7 8 7 7 5 5 4 6 4 2 2 2 3 3 4 4 5 5 6 7 6 6 7
7 7 8 10 9 8 6 7 7 6 7 6 7 8 8 9 10 10 9 8 7 7 7 6 5 6 7 4 3 4 3 3 3 4 4 5 5 6 7 6 7 7
6 7 8 7 7 7 8 9 10 11 12 12 10 8 8 10 10 10 9 8 9 9 8 7 6 7 7 5 4 5 5 3 4 4 4 5 6 7 7 8 6 6
6 7 7 6 6 7 9 9 10 9 5 5 8 6 8 8 9 10 9 9 9 9 8 7 6 6 7 5 5 5 5 3 3 4 5 5 6 7 6 7 7 7
6 6 6 6 8 9 10 12 12 11 13 11 10 10 10 10 9 9 8 8 8 7 7 6 5 7 7 6 5 4 5 3 4 4 4 5 6 7 7 7 8 8
6 6 7 8 9 9 10 10 11 14 13 10 8 7 7 8 7 8 9 8 7 7 7 6 5 6 6 6 4 4 3 3 4 4 5 6 7 7 7 7 7 8
7 7 8 9 10 11 12 12 12 9 9 10 11 9 9 9 9 8 8 8 7 6 7 6 4 5 6 6 3 3 2 4 4 5 5 6 7 6 7 7 7 8
6 8 8 9 9 12 12 10 6 6 9 9 11 10 9 9 7 6 6 6 7 6 6 6 5 5 6 4 3 4 4 4 5 5 6 7 7 7 6 6 9 16
7 8 9 10 11 10 10 10 9 9 7 6 8 8 8 7 7 7 5 4 6 7 6 6 5 4 5 4 4 5 5 4 5 5 6 7 6 7 7 7 7 9
7 9 10 10 10 9 9 10 10 10 11 10 9 8 8 6 6 7 8 7 5 5 5 5 5 4 3 5 5 7 7 5 4 5 7 8 7 7 8 6 7 8
Wind_Direction
176 182 185 186 194 192 180 176 181 173 179 167 171 179 170 175 156 148 141 124 123 115 111 106 102 95 91 86 83 75 73 77 75 77 75 75 68 68 52 41 40 36
187 184 188 182 181 194 197 187 178 179 182 182 185 163 158 147 168 148 145 131 118 120 126 121 109 109 105 95 89 83 66 62 52 31 59 55 49 58 50 42 46 30
184 184 185 184 188 192 189 192 183 187 179 191 172 162 161 162 157 154 147 139 127 123 111 108 98 100 103 100 95 90 85 77 67 27 52 48 39 39 16 13 36 26
197 193 192 196 189 185 180 177 188 185 166 154 191 184 165 166 155 152 151 140 128 121 117 104 109 106 98 90 82 70 62 68 82 79 56 39 29 26 13 0 7 351
207 205 207 200 194 177 172 184 188 184 182 188 174 170 156 153 152 149 145 140 132 129 124 121 113 101 99 91 91 83 69 72 52 59 59 36 5 8 350 4 355 342
257 236 219 204 193 178 184 197 195 182 177 167 185 174 174 161 156 153 149 140 142 139 140 135 115 107 110 113 100 99 107 88 91 91 76 53 1 346 340 348 341 335
207 208 214 211 199 193 194 199 190 184 183 178 153 178 162 162 160 158 152 147 148 154 145 134 121 127 135 118 101 105 107 114 116 103 82 89 70 337 333 334 333 324
221 200 203 198 202 202 203 197 191 188 178 159 176 174 167 164 159 153 149 148 145 139 123 120 124 128 130 102 103 100 94 114 103 95 95 82 104 325 317 303 310 310
207 212 212 204 200 202 204 199 195 186 175 174 173 167 170 161 156 153 153 147 135 135 127 123 127 121 113 104 105 108 104 96 114 112 107 25 4 287 285 290 299 294
230 207 196 205 209 204 201 198 189 184 178 177 172 163 161 162 152 150 146 141 135 131 124 127 123 120 112 114 128 135 139 185 6 70 100 258 262 279 282 282 279 282
215 201 200 200 208 207 203 191 185 180 178 174 162 166 158 147 149 145 140 141 141 142 138 136 140 131 125 130 144 148 156 172 210 277 292 283 276 271 274 272 270 264
216 206 204 204 201 200 198 191 181 175 173 171 166 159 156 155 151 157 148 148 143 148 146 144 142 137 143 164 164 139 136 148 168 277 294 293 292 287 279 270 267 266
213 215 213 207 201 197 193 186 177 172 169 170 171 158 156 153 149 142 147 142 150 143 148 151 148 145 147 150 149 122 120 91 354 316 301 300 286 282 281 276 272 270
214 217 211 209 205 201 181 172 181 179 176 168 159 159 155 152 152 152 157 148 152 151 155 146 137 129 133 121 104 120 98 16 341 312 303 297 288 282 280 278 274 274
208 204 201 197 196 189 189 194 189 182 170 160 162 159 157 154 151 145 143 142 144 143 134 123 129 141 134 135 151 159 137 261 291 285 281 281 280 274 274 271 272 270
211 200 195 194 194 197 199 200 193 177 165 163 163 158 152 146 142 145 146 149 144 130 128 129 127 127 152 157 148 136 197 214 241 258 264 270 280 286 279 272 268 268
217 210 199 200 201 201 204 198 189 163 158 152 147 148 147 146 141 139 141 144 143 141 138 134 143 161 158 148 163 210 194 220 230 262 264 267 267 272 277 275 271 264
222 212 206 209 200 194 150 138 139 140 137 139 150 151 150 144 143 146 145 144 141 141 143 152 162 172 164 169 203 248 254 238 236 245 257 260 260 264 266 271 274 276
226 215 214 204 189 167 158 151 154 162 168 164 172 160 145 146 147 140 143 143 144 150 156 165 162 168 166 185 226 252 269 265 249 246 255 261 267 268 269 272 274 276
229 218 211 194 172 162 159 162 167 160 124 120 134 144 146 140 140 140 143 149 156 157 162 164 155 164 175 201 228 254 275 284 256 263 262 263 269 271 273 276 276 278
226 214 200 178 175 171 169 173 170 157 163 167 155 154 149 147 151 149 157 159 160 158 154 157 162 172 183 208 234 255 285 303 274 269 269 269 268 269 268 272 275 274
212 202 187 174 173 172 172 172 174 176 163 149 143 137 131 134 149 150 156 160 161 156 149 158 180 186 202 218 233 269 301 297 283 275 274 269 270 270 271 269 269 269
207 193 184 178 172 170 176 179 179 173 149 141 137 143 146 155 158 166 160 153 158 161 153 163 187 212 209 217 234 276 314 287 276 271 263 269 267 271 270 268 266 265
204 187 184 178 175 179 183 179 159 133 140 140 140 147 155 162 158 132 134 150 150 171 172 169 200 223 206 213 231 265 264 266 270 270 274 272 275 265 263 258 258 265
200 190 184 181 181 180 166 148 140 144 134 125 131 138 146 142 141 135 142 164 180 178 175 170 199 223 209 214 236 261 269 267 270 270 278 277 280 282 265 254 259 257
198 191 186 180 174 160 154 145 138 135 139 142 143 138 146 153 137 149 165 184 194 171 188 187 194 234 220 221 232 256 264 266 264 279 282 290 288 286 291 273 266 271